User: anonymous   Login
Location: Unspecified
(0.0000°N, 0.0000°E)
Time: 19:11:02
(UTC+00:00)
Language:

USA 215 - Orbit

View from above orbital plane
View from above orbital plane
View from above satellite
View from above satellite

Ground track
Ground track

The orbit data is extracted from the following two-line orbital elements,

1 37162U 10046A   19047.11571072 0.00000000  00000-0  00000-0 0    08
2 37162 122.9976 265.1714 0007001 139.6900 220.3100 13.41411115    09
Epoch (UTC): 16 February 2019 02:46:37
Eccentricity: 0.0007001
inclination: 122.9976°
perigee height: 1099 km
apogee height: 1109 km
right ascension of ascending node: 265.1714°
argument of perigee: 139.6900°
revolutions per day: 13.41411115
mean anomaly at epoch: 220.3100°
orbit number at epoch: 0

The dashed part of the orbit path shows where the satellite is in the earth's shadow,  

DLR